Time,TemperatureF,DewpointF,PressureIn,WindDirection,WindDirectionDegrees,WindSpeedMPH,WindSpeedGustMPH,Humidity,HourlyPrecipIn,Conditions,Clouds,dailyrainin,SoftwareType,DateUTC
2013-01-09 00:00:00,62.1,60.5,30.15,ENE,64,0.0,0.0,94,0.00,,---,0.00,VWS V14.01,2013-01-09 05:00:00,
2013-01-09 00:03:00,62.1,60.5,30.15,ENE,64,0.0,0.0,94,0.00,,---,0.00,VWS V14.01,2013-01-09 05:03:00,
2013-01-09 00:08:00,61.9,60.3,30.15,ENE,72,0.0,0.0,94,0.00,,---,0.00,VWS V14.01,2013-01-09 05:08:00,
2013-01-09 00:13:00,61.9,60.3,30.15,ENE,60,0.0,0.0,94,0.00,,---,0.00,VWS V14.01,2013-01-09 05:13:00,
2013-01-09 00:18:00,61.9,60.3,30.15,ENE,60,0.0,0.0,94,0.00,,---,0.00,VWS V14.01,2013-01-09 05:18:00,
2013-01-09 00:23:00,61.9,60.3,30.15,ENE,60,0.0,0.0,94,0.00,,---,0.00,VWS V14.01,2013-01-09 05:23:00,
2013-01-09 00:28:00,62.1,60.5,30.15,ENE,60,0.0,0.0,94,0.00,,---,0.00,VWS V14.01,2013-01-09 05:28:00,
2013-01-09 00:33:00,62.1,60.5,30.15,ENE,60,0.0,0.0,94,0.00,,---,0.00,VWS V14.01,2013-01-09 05:33:00,
2013-01-09 00:38:00,62.2,60.7,30.15,ENE,60,0.0,0.0,94,0.00,,---,0.00,VWS V14.01,2013-01-09 05:38:00,
2013-01-09 00:43:00,62.2,60.7,30.15,ENE,60,0.0,0.0,94,0.00,,---,0.00,VWS V14.01,2013-01-09 05:43:00,
2013-01-09 00:48:00,62.2,60.7,30.15,ENE,60,0.0,0.0,94,0.00,,---,0.00,VWS V14.01,2013-01-09 05:48:00,
2013-01-09 00:53:00,62.2,60.7,30.15,ENE,60,0.0,0.0,94,0.00,,---,0.00,VWS V14.01,2013-01-09 05:53:00,
2013-01-09 00:58:00,62.2,60.7,30.15,ENE,60,0.0,0.0,94,0.00,,---,0.00,VWS V14.01,2013-01-09 05:58:00,
2013-01-09 01:03:00,62.2,60.7,30.15,ENE,60,0.0,0.0,94,0.00,,---,0.00,VWS V14.01,2013-01-09 06:03:00,
2013-01-09 01:08:00,62.4,60.8,30.15,North,8,0.0,0.0,94,0.00,,---,0.00,VWS V14.01,2013-01-09 06:08:00,
2013-01-09 01:13:00,62.4,60.8,30.15,North,3,0.0,0.0,94,0.00,,---,0.00,VWS V14.01,2013-01-09 06:13:00,
2013-01-09 01:18:00,62.6,61.0,30.15,North,0,0.0,0.0,94,0.00,,---,0.00,VWS V14.01,2013-01-09 06:18:00,
2013-01-09 01:23:00,62.6,61.0,30.15,North,357,0.0,0.0,94,0.00,,---,0.00,VWS V14.01,2013-01-09 06:23:00,
2013-01-09 01:28:00,62.6,61.0,30.15,North,8,0.0,0.0,94,0.00,,---,0.00,VWS V14.01,2013-01-09 06:28:00,
2013-01-09 01:33:00,62.8,61.2,30.15,North,6,0.0,0.0,94,0.00,,---,0.00,VWS V14.01,2013-01-09 06:33:00,
2013-01-09 01:38:00,63.0,61.4,30.15,NE,38,0.0,0.0,94,0.00,,---,0.00,VWS V14.01,2013-01-09 06:38:00,
2013-01-09 01:43:00,63.0,61.4,30.15,NE,37,0.0,0.0,94,0.00,,---,0.00,VWS V14.01,2013-01-09 06:43:00,
2013-01-09 01:48:00,63.0,61.4,30.15,North,0,0.0,0.0,94,0.00,,---,0.00,VWS V14.01,2013-01-09 06:48:00,
2013-01-09 01:53:00,63.0,61.4,30.15,North,9,0.0,0.0,94,0.00,,---,0.00,VWS V14.01,2013-01-09 06:53:00,
2013-01-09 01:58:00,63.0,61.4,30.15,North,5,0.0,0.0,94,0.00,,---,0.00,VWS V14.01,2013-01-09 06:58:00,
2013-01-09 02:03:00,63.0,61.7,30.15,ENE,67,0.0,0.0,96,0.00,,---,0.00,VWS V14.01,2013-01-09 07:03:00,
2013-01-09 02:08:00,63.0,61.7,30.15,NNE,24,4.9,4.9,96,0.00,,---,0.00,VWS V14.01,2013-01-09 07:08:00,
2013-01-09 02:13:00,62.8,61.5,30.15,NE,37,2.7,2.7,96,0.00,,---,0.00,VWS V14.01,2013-01-09 07:13:00,
2013-01-09 02:18:00,62.6,61.3,30.15,NNE,25,0.0,0.0,96,0.00,,---,0.00,VWS V14.01,2013-01-09 07:18:00,
2013-01-09 02:23:00,62.6,61.3,30.15,NE,38,0.0,0.0,96,0.00,,---,0.00,VWS V14.01,2013-01-09 07:23:00,
2013-01-09 02:28:00,62.6,61.3,30.15,NE,35,0.0,0.0,96,0.00,,---,0.00,VWS V14.01,2013-01-09 07:28:00,
2013-01-09 02:33:00,62.6,61.3,30.15,North,357,0.0,0.0,96,0.00,,---,0.00,VWS V14.01,2013-01-09 07:33:00,
2013-01-09 02:38:00,62.4,61.1,30.15,NE,50,0.0,0.0,96,0.00,,---,0.00,VWS V14.01,2013-01-09 07:38:00,
2013-01-09 02:43:00,62.4,61.1,30.15,ENE,75,0.0,0.0,96,0.00,,---,0.00,VWS V14.01,2013-01-09 07:43:00,
2013-01-09 02:48:00,62.4,61.1,30.15,ENE,68,0.0,0.0,96,0.00,,---,0.00,VWS V14.01,2013-01-09 07:48:00,
2013-01-09 02:53:00,62.4,61.4,30.15,ENE,76,0.0,0.0,97,0.00,,---,0.00,VWS V14.01,2013-01-09 07:53:00,
2013-01-09 02:58:00,62.4,61.4,30.15,NE,45,0.0,0.0,97,0.00,,---,0.00,VWS V14.01,2013-01-09 07:58:00,
2013-01-09 03:03:00,62.2,61.3,30.15,NE,52,0.0,0.0,97,0.00,,---,0.00,VWS V14.01,2013-01-09 08:03:00,
2013-01-09 03:08:00,62.2,61.3,30.15,NNE,30,0.0,0.0,97,0.00,,---,0.00,VWS V14.01,2013-01-09 08:08:00,
2013-01-09 03:13:00,62.2,61.3,30.15,NE,56,0.0,0.0,97,0.00,,---,0.00,VWS V14.01,2013-01-09 08:13:00,
2013-01-09 03:18:00,62.2,61.3,30.15,NNE,32,0.0,0.0,97,0.00,,---,0.00,VWS V14.01,2013-01-09 08:18:00,
2013-01-09 03:23:00,62.2,61.3,30.15,NNE,32,0.0,0.0,97,0.00,,---,0.00,VWS V14.01,2013-01-09 08:23:00,
2013-01-09 03:28:00,62.1,61.1,30.15,North,0,0.0,0.0,97,0.00,,---,0.00,VWS V14.01,2013-01-09 08:28:00,
2013-01-09 03:33:00,62.1,61.1,30.15,NE,52,0.0,0.0,97,0.00,,---,0.00,VWS V14.01,2013-01-09 08:33:00,
2013-01-09 03:38:00,61.9,60.9,30.15,North,0,0.0,0.0,97,0.00,,---,0.00,VWS V14.01,2013-01-09 08:38:00,
2013-01-09 03:43:00,61.9,60.9,30.15,NNE,28,0.0,0.0,97,0.00,,---,0.00,VWS V14.01,2013-01-09 08:43:00,
2013-01-09 03:48:00,61.9,60.9,30.15,NNW,336,0.0,0.0,97,0.00,,---,0.00,VWS V14.01,2013-01-09 08:48:00,
2013-01-09 03:53:00,61.9,60.9,30.15,North,11,0.0,0.0,97,0.00,,---,0.00,VWS V14.01,2013-01-09 08:53:00,
2013-01-09 03:58:00,61.9,60.9,30.15,NNE,29,0.0,0.0,97,0.00,,---,0.00,VWS V14.01,2013-01-09 08:58:00,
2013-01-09 04:03:00,61.9,60.9,30.15,NNW,344,0.0,0.0,97,0.00,,---,0.00,VWS V14.01,2013-01-09 09:03:00,
2013-01-09 04:08:00,61.7,60.7,30.15,ENE,78,0.0,0.0,97,0.00,,---,0.00,VWS V14.01,2013-01-09 09:08:00,
2013-01-09 04:13:00,61.7,60.7,30.15,North,353,0.0,0.0,97,0.00,,---,0.00,VWS V14.01,2013-01-09 09:13:00,
2013-01-09 04:18:00,61.7,60.7,30.15,NNE,23,0.0,0.0,97,0.00,,---,0.00,VWS V14.01,2013-01-09 09:18:00,
2013-01-09 04:23:00,61.7,60.7,30.15,North,357,0.0,0.0,97,0.00,,---,0.00,VWS V14.01,2013-01-09 09:23:00,
2013-01-09 04:28:00,61.7,60.7,30.15,NNE,13,0.0,0.0,97,0.00,,---,0.00,VWS V14.01,2013-01-09 09:28:00,
2013-01-09 04:33:00,61.7,60.7,30.15,ENE,64,0.0,0.0,97,0.00,,---,0.00,VWS V14.01,2013-01-09 09:33:00,
2013-01-09 04:38:00,61.7,61.0,30.15,East,86,0.0,0.0,98,0.00,,---,0.00,VWS V14.01,2013-01-09 09:38:00,
2013-01-09 04:43:00,61.7,61.0,30.15,NNE,24,0.0,0.0,98,0.00,,---,0.00,VWS V14.01,2013-01-09 09:43:00,
2013-01-09 04:48:00,61.7,61.0,30.15,North,6,0.0,0.0,98,0.00,,---,0.00,VWS V14.01,2013-01-09 09:48:00,
2013-01-09 04:53:00,61.7,61.0,30.12,North,357,0.0,0.0,98,0.00,,---,0.00,VWS V14.01,2013-01-09 09:53:00,
2013-01-09 04:58:00,61.7,61.0,30.12,NE,49,0.0,0.0,98,0.00,,---,0.00,VWS V14.01,2013-01-09 09:58:00,
2013-01-09 05:03:00,61.7,61.0,30.12,NNE,19,0.0,0.0,98,0.00,,---,0.00,VWS V14.01,2013-01-09 10:03:00,
2013-01-09 05:08:00,61.7,61.0,30.15,East,83,0.0,0.0,98,0.00,,---,0.00,VWS V14.01,2013-01-09 10:08:00,
2013-01-09 05:13:00,61.7,61.0,30.15,East,83,0.0,0.0,98,0.00,,---,0.00,VWS V14.01,2013-01-09 10:13:00,
2013-01-09 05:18:00,61.7,61.0,30.15,NE,44,0.0,0.0,98,0.00,,---,0.00,VWS V14.01,2013-01-09 10:18:00,
2013-01-09 05:23:00,61.7,61.0,30.15,NNE,23,0.0,0.0,98,0.00,,---,0.00,VWS V14.01,2013-01-09 10:23:00,
2013-01-09 05:28:00,61.7,61.0,30.15,NNE,29,0.0,0.0,98,0.00,,---,0.00,VWS V14.01,2013-01-09 10:28:00,
2013-01-09 05:33:00,61.7,61.0,30.15,NNE,29,0.0,0.0,98,0.00,,---,0.00,VWS V14.01,2013-01-09 10:33:00,
2013-01-09 05:38:00,61.7,61.0,30.15,NNE,29,0.0,0.0,98,0.00,,---,0.00,VWS V14.01,2013-01-09 10:38:00,
2013-01-09 05:43:00,61.9,61.5,30.15,NNE,32,0.0,0.0,99,0.00,,---,0.00,VWS V14.01,2013-01-09 10:43:00,
2013-01-09 05:48:00,61.9,61.5,30.15,NNE,31,0.0,0.0,99,0.00,,---,0.00,VWS V14.01,2013-01-09 10:48:00,
2013-01-09 05:53:00,61.9,61.5,30.15,North,2,0.0,0.0,99,0.00,,---,0.00,VWS V14.01,2013-01-09 10:53:00,
2013-01-09 05:58:00,61.9,61.5,30.15,ENE,63,0.0,0.0,99,0.00,,---,0.00,VWS V14.01,2013-01-09 10:58:00,
2013-01-09 06:03:00,61.7,61.3,30.15,NE,56,0.0,0.0,99,0.00,,---,0.00,VWS V14.01,2013-01-09 11:03:00,
2013-01-09 06:08:00,61.7,61.3,30.15,ENE,65,0.0,0.0,99,0.00,,---,0.00,VWS V14.01,2013-01-09 11:08:00,
2013-01-09 06:13:00,61.7,61.3,30.15,NNE,13,0.0,0.0,99,0.00,,---,0.00,VWS V14.01,2013-01-09 11:13:00,
2013-01-09 06:18:00,61.7,61.3,30.15,ENE,73,0.0,0.0,99,0.00,,---,0.00,VWS V14.01,2013-01-09 11:18:00,
2013-01-09 06:23:00,61.7,61.3,30.15,ENE,70,0.0,0.0,99,0.00,,---,0.00,VWS V14.01,2013-01-09 11:23:00,
2013-01-09 06:28:00,61.7,61.3,30.15,NE,56,0.0,0.0,99,0.00,,---,0.00,VWS V14.01,2013-01-09 11:28:00,
2013-01-09 06:33:00,61.7,61.6,30.15,NNE,16,0.0,0.0,100,0.00,,---,0.00,VWS V14.01,2013-01-09 11:33:00,
2013-01-09 06:38:00,61.7,61.6,30.15,NE,34,0.0,0.0,100,0.00,,---,0.00,VWS V14.01,2013-01-09 11:38:00,
2013-01-09 06:43:00,61.7,61.6,30.15,NNE,26,0.0,0.0,100,0.00,,---,0.00,VWS V14.01,2013-01-09 11:43:00,
2013-01-09 06:48:00,61.7,61.6,30.15,East,87,0.0,0.0,100,0.00,,---,0.00,VWS V14.01,2013-01-09 11:48:00,
2013-01-09 06:53:00,61.9,61.8,30.15,ENE,66,0.0,0.0,100,0.00,,---,0.00,VWS V14.01,2013-01-09 11:53:00,
2013-01-09 06:58:00,61.9,61.8,30.15,ENE,66,0.0,0.0,100,0.00,,---,0.00,VWS V14.01,2013-01-09 11:58:00,
2013-01-09 07:03:00,61.9,61.8,30.15,NE,50,0.0,0.0,100,0.00,,---,0.00,VWS V14.01,2013-01-09 12:03:00,
2013-01-09 07:08:00,61.9,61.8,30.15,NE,48,0.0,0.0,100,0.00,,---,0.00,VWS V14.01,2013-01-09 12:08:00,
2013-01-09 07:13:00,61.9,61.9,30.15,NNW,344,0.0,0.0,100,0.00,,---,0.00,VWS V14.01,2013-01-09 12:13:00,
2013-01-09 07:18:00,61.9,61.9,30.15,North,353,0.0,0.0,100,0.00,,---,0.00,VWS V14.01,2013-01-09 12:18:00,
2013-01-09 07:23:00,61.9,61.9,30.18,ENE,76,0.0,0.0,100,0.00,,---,0.00,VWS V14.01,2013-01-09 12:23:00,
2013-01-09 07:28:00,61.9,61.9,30.18,East,90,0.0,0.0,100,0.00,,---,0.00,VWS V14.01,2013-01-09 12:28:00,
2013-01-09 07:33:00,61.9,61.9,30.18,NNE,25,0.0,0.0,100,0.00,,---,0.00,VWS V14.01,2013-01-09 12:33:00,
2013-01-09 07:38:00,61.9,61.9,30.18,ENE,57,0.0,0.0,100,0.00,,---,0.00,VWS V14.01,2013-01-09 12:38:00,
2013-01-09 07:43:00,61.9,61.9,30.18,North,6,0.0,0.0,100,0.00,,---,0.00,VWS V14.01,2013-01-09 12:43:00,
2013-01-09 07:48:00,62.1,62.1,30.18,NNE,27,0.0,0.0,100,0.00,,---,0.00,VWS V14.01,2013-01-09 12:48:00,
2013-01-09 07:53:00,62.1,62.1,30.18,ENE,70,0.0,0.0,100,0.00,,---,0.00,VWS V14.01,2013-01-09 12:53:00,
2013-01-09 07:58:00,62.1,62.1,30.18,NE,45,0.0,0.0,100,0.00,,---,0.00,VWS V14.01,2013-01-09 12:58:00,
2013-01-09 08:03:00,62.1,62.1,30.18,East,80,0.0,0.0,100,0.00,,---,0.00,VWS V14.01,2013-01-09 13:03:00,
2013-01-09 08:08:00,62.2,62.2,30.21,East,97,0.0,0.0,100,0.00,,---,0.00,VWS V14.01,2013-01-09 13:08:00,
2013-01-09 08:13:00,62.2,62.2,30.21,ENE,65,0.0,0.0,100,0.00,,---,0.00,VWS V14.01,2013-01-09 13:13:00,
2013-01-09 08:18:00,62.2,62.2,30.21,NE,55,0.0,0.0,100,0.00,,---,0.00,VWS V14.01,2013-01-09 13:18:00,
2013-01-09 08:23:00,62.4,62.4,30.21,NE,55,0.0,0.0,100,0.00,,---,0.00,VWS V14.01,2013-01-09 13:23:00,
2013-01-09 08:28:00,62.4,62.4,30.21,ENE,70,0.0,0.0,100,0.00,,---,0.00,VWS V14.01,2013-01-09 13:28:00,
2013-01-09 08:33:00,62.4,62.4,30.21,NE,51,0.0,0.0,100,0.00,,---,0.00,VWS V14.01,2013-01-09 13:33:00,
2013-01-09 08:38:00,62.6,62.5,30.21,North,0,0.0,0.0,100,0.00,,---,0.00,VWS V14.01,2013-01-09 13:38:00,
2013-01-09 08:43:00,62.8,62.8,30.21,NE,36,0.0,0.0,100,0.00,,---,0.00,VWS V14.01,2013-01-09 13:43:00,
2013-01-09 08:48:00,63.0,63.0,30.21,NE,51,0.0,0.0,100,0.00,,---,0.00,VWS V14.01,2013-01-09 13:48:00,
2013-01-09 08:53:00,63.0,63.0,30.21,ENE,68,2.7,4.0,100,0.00,,---,0.00,VWS V14.01,2013-01-09 13:53:00,
2013-01-09 08:58:00,63.0,62.9,30.21,NE,49,0.0,0.0,100,0.00,,---,0.00,VWS V14.01,2013-01-09 13:58:00,
2013-01-09 09:03:00,63.0,62.9,30.21,East,84,0.0,5.4,100,0.00,,---,0.00,VWS V14.01,2013-01-09 14:03:00,
2013-01-09 09:08:00,62.8,62.7,30.21,NE,53,0.0,0.0,100,0.00,,---,0.00,VWS V14.01,2013-01-09 14:08:00,
2013-01-09 09:13:00,62.8,62.7,30.21,NNE,25,0.0,0.0,100,0.00,,---,0.00,VWS V14.01,2013-01-09 14:13:00,
2013-01-09 09:18:00,63.0,62.9,30.21,North,353,0.0,0.0,100,0.00,,---,0.00,VWS V14.01,2013-01-09 14:18:00,
2013-01-09 09:23:00,63.0,62.9,30.24,NE,35,0.0,0.0,100,0.00,,---,0.00,VWS V14.01,2013-01-09 14:23:00,
2013-01-09 09:28:00,63.1,63.1,30.24,North,357,0.0,0.0,100,0.00,,---,0.00,VWS V14.01,2013-01-09 14:28:00,
2013-01-09 09:33:00,63.5,63.5,30.24,NNW,342,0.0,0.0,100,0.00,,---,0.00,VWS V14.01,2013-01-09 14:33:00,
2013-01-09 09:38:00,63.7,63.7,30.24,NNW,328,0.0,0.0,100,0.00,,---,0.00,VWS V14.01,2013-01-09 14:38:00,
2013-01-09 09:43:00,63.9,63.9,30.24,NW,316,0.0,0.0,100,0.00,,---,0.00,VWS V14.01,2013-01-09 14:43:00,
2013-01-09 09:48:00,64.2,64.2,30.24,NNW,345,0.0,0.0,100,0.00,,---,0.00,VWS V14.01,2013-01-09 14:48:00,
2013-01-09 09:53:00,64.4,64.3,30.24,NNW,345,0.0,0.0,100,0.00,,---,0.00,VWS V14.01,2013-01-09 14:53:00,
2013-01-09 09:58:00,64.8,64.7,30.24,NNE,28,0.0,0.0,100,0.00,,---,0.00,VWS V14.01,2013-01-09 14:58:00,
2013-01-09 10:03:00,65.1,65.1,30.24,NNE,27,0.0,0.0,100,0.00,,---,0.00,VWS V14.01,2013-01-09 15:03:00,
2013-01-09 10:08:00,65.7,65.6,30.24,North,357,0.0,0.0,100,0.00,,---,0.00,VWS V14.01,2013-01-09 15:08:00,
2013-01-09 10:13:00,66.2,65.8,30.24,North,357,0.0,0.0,99,0.00,,---,0.00,VWS V14.01,2013-01-09 15:13:00,
2013-01-09 10:18:00,66.9,66.6,30.24,North,6,0.0,0.0,99,0.00,,---,0.00,VWS V14.01,2013-01-09 15:18:00,
2013-01-09 10:23:00,67.5,66.8,30.24,NNE,25,0.0,0.0,98,0.00,,---,0.00,VWS V14.01,2013-01-09 15:23:00,
2013-01-09 10:28:00,67.6,66.3,30.24,NNE,16,0.0,0.0,96,0.00,,---,0.00,VWS V14.01,2013-01-09 15:28:00,
2013-01-09 10:33:00,67.6,65.7,30.24,NNW,331,0.0,0.0,93,0.00,,---,0.00,VWS V14.01,2013-01-09 15:33:00,
2013-01-09 10:38:00,68.2,65.6,30.24,ENE,59,0.0,0.0,91,0.00,,---,0.00,VWS V14.01,2013-01-09 15:38:00,
2013-01-09 10:43:00,68.0,64.4,30.24,NE,50,0.0,0.0,88,0.00,,---,0.00,VWS V14.01,2013-01-09 15:43:00,
2013-01-09 10:48:00,68.2,64.6,30.24,NNE,18,0.0,0.0,88,0.00,,---,0.00,VWS V14.01,2013-01-09 15:48:00,
2013-01-09 10:53:00,68.7,63.3,30.24,NE,45,5.4,5.4,83,0.00,,---,0.00,VWS V14.01,2013-01-09 15:53:00,
2013-01-09 10:58:00,69.1,60.7,30.24,East,80,0.0,0.0,75,0.00,,---,0.00,VWS V14.01,2013-01-09 15:58:00,
2013-01-09 11:03:00,69.4,60.2,30.24,East,81,0.0,0.0,72,0.00,,---,0.00,VWS V14.01,2013-01-09 16:03:00,
2013-01-09 11:08:00,70.2,61.3,30.24,NE,35,0.0,0.0,74,0.00,,---,0.00,VWS V14.01,2013-01-09 16:08:00,
2013-01-09 11:13:00,70.5,60.0,30.24,ENE,63,0.0,0.0,69,0.00,,---,0.00,VWS V14.01,2013-01-09 16:13:00,
2013-01-09 11:18:00,70.5,58.2,30.24,East,96,0.0,3.1,65,0.00,,---,0.00,VWS V14.01,2013-01-09 16:18:00,
2013-01-09 11:23:00,70.5,58.7,30.21,NE,36,0.0,0.0,66,0.00,,---,0.00,VWS V14.01,2013-01-09 16:23:00,
2013-01-09 11:28:00,70.7,58.4,30.21,ENE,61,3.1,4.9,65,0.00,,---,0.00,VWS V14.01,2013-01-09 16:28:00,
2013-01-09 11:33:00,70.7,58.4,30.21,East,84,0.0,3.1,65,0.00,,---,0.00,VWS V14.01,2013-01-09 16:33:00,
2013-01-09 11:38:00,71.1,59.2,30.21,East,86,0.0,0.0,66,0.00,,---,0.00,VWS V14.01,2013-01-09 16:38:00,
2013-01-09 11:43:00,71.4,59.1,30.21,NE,50,0.0,0.0,65,0.00,,---,0.00,VWS V14.01,2013-01-09 16:43:00,
2013-01-09 11:48:00,71.8,59.0,30.21,East,81,0.0,0.0,64,0.00,,---,0.00,VWS V14.01,2013-01-09 16:48:00,
2013-01-09 11:53:00,72.1,58.4,30.21,ENE,65,0.0,0.0,62,0.00,,---,0.00,VWS V14.01,2013-01-09 16:53:00,
2013-01-09 11:58:00,72.1,57.9,30.21,NE,51,0.0,0.0,61,0.00,,---,0.00,VWS V14.01,2013-01-09 16:58:00,
2013-01-09 12:03:00,72.1,58.4,30.21,NE,54,0.0,0.0,62,0.00,,---,0.00,VWS V14.01,2013-01-09 17:03:00,
2013-01-09 12:08:00,72.3,59.0,30.21,ENE,62,0.0,0.0,63,0.00,,---,0.00,VWS V14.01,2013-01-09 17:08:00,
2013-01-09 12:13:00,72.3,58.6,30.21,NE,50,3.6,4.9,62,0.00,,---,0.00,VWS V14.01,2013-01-09 17:13:00,
2013-01-09 12:18:00,72.1,59.3,30.21,ENE,77,4.0,5.8,64,0.00,,---,0.00,VWS V14.01,2013-01-09 17:18:00,
2013-01-09 12:23:00,72.1,59.8,30.21,NE,41,4.5,4.5,65,0.00,,---,0.00,VWS V14.01,2013-01-09 17:23:00,
2013-01-09 12:28:00,72.1,60.2,30.21,East,84,3.6,5.4,66,0.00,,---,0.00,VWS V14.01,2013-01-09 17:28:00,
2013-01-09 12:33:00,72.3,60.0,30.21,NE,40,4.0,4.9,65,0.00,,---,0.00,VWS V14.01,2013-01-09 17:33:00,
2013-01-09 12:38:00,72.5,59.7,30.18,NE,34,2.7,5.8,64,0.00,,---,0.00,VWS V14.01,2013-01-09 17:38:00,
2013-01-09 12:43:00,72.3,60.0,30.18,East,81,4.9,5.4,65,0.00,,---,0.00,VWS V14.01,2013-01-09 17:43:00,
2013-01-09 12:48:00,72.3,60.0,30.18,ENE,59,2.7,2.7,65,0.00,,---,0.00,VWS V14.01,2013-01-09 17:48:00,
2013-01-09 12:53:00,72.3,60.8,30.18,NE,45,0.0,2.2,67,0.00,,---,0.00,VWS V14.01,2013-01-09 17:53:00,
2013-01-09 12:58:00,72.5,60.1,30.18,NE,56,5.8,5.8,65,0.00,,---,0.00,VWS V14.01,2013-01-09 17:58:00,
2013-01-09 13:03:00,73.0,60.6,30.18,ENE,60,3.1,4.9,65,0.00,,---,0.00,VWS V14.01,2013-01-09 18:03:00,
2013-01-09 13:08:00,73.8,59.4,30.18,NE,36,6.7,6.7,61,0.00,,---,0.00,VWS V14.01,2013-01-09 18:08:00,
2013-01-09 13:13:00,74.3,58.5,30.18,NE,51,4.0,6.3,58,0.00,,---,0.00,VWS V14.01,2013-01-09 18:13:00,
2013-01-09 13:18:00,74.1,58.3,30.18,NE,38,2.2,3.6,58,0.00,,---,0.00,VWS V14.01,2013-01-09 18:18:00,
2013-01-09 13:23:00,73.6,58.3,30.18,North,357,0.0,3.1,59,0.00,,---,0.00,VWS V14.01,2013-01-09 18:23:00,
2013-01-09 13:28:00,73.4,59.1,30.18,ENE,60,4.0,4.0,61,0.00,,---,0.00,VWS V14.01,2013-01-09 18:28:00,
2013-01-09 13:33:00,73.6,59.3,30.18,North,5,0.0,3.6,61,0.00,,---,0.00,VWS V14.01,2013-01-09 18:33:00,
2013-01-09 13:38:00,74.3,59.0,30.18,NE,35,3.1,3.6,59,0.00,,---,0.00,VWS V14.01,2013-01-09 18:38:00,
2013-01-09 13:41:00,74.5,58.1,30.18,NE,45,0.0,2.7,57,0.00,,---,0.00,VWS V14.01,2013-01-09 18:41:00,
2013-01-09 13:42:00,74.5,58.6,30.18,North,357,2.2,2.7,58,0.00,,---,0.00,VWS V14.01,2013-01-09 18:42:00,
2013-01-09 13:44:00,74.7,58.8,30.18,NNE,32,0.0,0.0,58,0.00,,---,0.00,VWS V14.01,2013-01-09 18:44:00,
2013-01-09 13:45:00,74.7,58.3,30.18,ENE,58,0.0,0.0,57,0.00,,---,0.00,VWS V14.01,2013-01-09 18:45:00,
2013-01-09 13:48:00,74.7,58.3,30.18,NE,52,3.6,5.4,57,0.00,,---,0.00,VWS V14.01,2013-01-09 18:48:00,
2013-01-09 13:49:00,74.7,58.3,30.18,NE,51,3.6,5.4,57,0.00,,---,0.00,VWS V14.01,2013-01-09 18:49:00,
2013-01-09 13:54:00,75.0,58.1,30.18,North,357,0.0,3.6,56,0.00,,---,0.00,VWS V14.01,2013-01-09 18:54:00,
2013-01-09 13:59:00,75.2,58.8,30.18,ENE,59,2.7,3.6,57,0.00,,---,0.00,VWS V14.01,2013-01-09 18:59:00,
2013-01-09 14:04:00,75.0,57.6,30.18,East,87,0.0,3.1,55,0.00,,---,0.00,VWS V14.01,2013-01-09 19:04:00,
2013-01-09 14:09:00,74.8,58.5,30.18,NE,36,0.0,4.0,57,0.00,,---,0.00,VWS V14.01,2013-01-09 19:09:00,
2013-01-09 14:14:00,74.8,59.5,30.18,NNE,26,2.2,2.2,59,0.00,,---,0.00,VWS V14.01,2013-01-09 19:14:00,
2013-01-09 14:19:00,74.8,58.5,30.18,NE,41,4.0,5.8,57,0.00,,---,0.00,VWS V14.01,2013-01-09 19:19:00,
2013-01-09 14:24:00,74.5,58.6,30.18,NE,45,3.6,5.4,58,0.00,,---,0.00,VWS V14.01,2013-01-09 19:24:00,
2013-01-09 14:29:00,74.3,59.5,30.18,ENE,63,2.7,4.9,60,0.00,,---,0.00,VWS V14.01,2013-01-09 19:29:00,
2013-01-09 14:34:00,74.5,59.6,30.18,NNE,31,5.8,5.8,60,0.00,,---,0.00,VWS V14.01,2013-01-09 19:34:00,
2013-01-09 14:39:00,74.8,60.0,30.18,ESE,103,0.0,3.1,60,0.00,,---,0.00,VWS V14.01,2013-01-09 19:39:00,
2013-01-09 14:44:00,75.0,59.1,30.18,NE,44,5.8,6.3,58,0.00,,---,0.00,VWS V14.01,2013-01-09 19:44:00,
2013-01-09 14:49:00,74.7,58.8,30.18,NE,42,0.0,4.5,58,0.00,,---,0.00,VWS V14.01,2013-01-09 19:49:00,
2013-01-09 14:54:00,74.7,58.8,30.18,NNE,28,0.0,3.1,58,0.00,,---,0.00,VWS V14.01,2013-01-09 19:54:00,
2013-01-09 14:59:00,74.7,58.8,30.18,ENE,78,0.0,0.0,58,0.00,,---,0.00,VWS V14.01,2013-01-09 19:59:00,
2013-01-09 15:04:00,74.8,59.0,30.18,ENE,62,5.8,6.3,58,0.00,,---,0.00,VWS V14.01,2013-01-09 20:04:00,
2013-01-09 15:09:00,74.8,58.5,30.18,NNE,29,3.6,3.6,57,0.00,,---,0.00,VWS V14.01,2013-01-09 20:09:00,
2013-01-09 15:14:00,74.7,58.8,30.18,ENE,64,3.6,5.4,58,0.00,,---,0.00,VWS V14.01,2013-01-09 20:14:00,
2013-01-09 15:19:00,74.7,58.8,30.18,East,79,4.9,4.9,58,0.00,,---,0.00,VWS V14.01,2013-01-09 20:19:00,
2013-01-09 15:24:00,74.5,58.1,30.18,NE,53,2.7,5.8,57,0.00,,---,0.00,VWS V14.01,2013-01-09 20:24:00,
2013-01-09 15:29:00,74.5,58.6,30.18,NNE,31,5.8,5.8,58,0.00,,---,0.00,VWS V14.01,2013-01-09 20:29:00,
2013-01-09 15:34:00,74.3,58.5,30.18,ENE,63,4.0,4.0,58,0.00,,---,0.00,VWS V14.01,2013-01-09 20:34:00,
2013-01-09 15:39:00,74.5,58.1,30.18,NE,36,5.8,6.3,57,0.00,,---,0.00,VWS V14.01,2013-01-09 20:39:00,
2013-01-09 15:44:00,74.3,58.5,30.18,NE,51,5.4,7.6,58,0.00,,---,0.00,VWS V14.01,2013-01-09 20:44:00,
2013-01-09 15:49:00,74.1,57.8,30.18,NE,53,2.2,4.9,57,0.00,,---,0.00,VWS V14.01,2013-01-09 20:49:00,
2013-01-09 15:54:00,74.1,58.3,30.18,ENE,64,5.8,6.3,58,0.00,,---,0.00,VWS V14.01,2013-01-09 20:54:00,
2013-01-09 15:59:00,73.9,58.1,30.18,ENE,70,6.3,8.1,58,0.00,,---,0.00,VWS V14.01,2013-01-09 20:59:00,
2013-01-09 16:04:00,73.6,57.8,30.18,NE,43,5.8,5.8,58,0.00,,---,0.00,VWS V14.01,2013-01-09 21:04:00,
2013-01-09 16:09:00,73.2,57.5,30.18,ENE,61,4.9,4.9,58,0.00,,---,0.00,VWS V14.01,2013-01-09 21:09:00,
2013-01-09 16:14:00,72.7,57.9,30.18,NE,42,6.3,6.7,60,0.00,,---,0.00,VWS V14.01,2013-01-09 21:14:00,
2013-01-09 16:19:00,72.3,58.1,30.18,East,96,2.7,5.8,61,0.00,,---,0.00,VWS V14.01,2013-01-09 21:19:00,
2013-01-09 16:24:00,72.1,58.4,30.18,East,89,2.2,4.9,62,0.00,,---,0.00,VWS V14.01,2013-01-09 21:24:00,
2013-01-09 16:29:00,71.8,58.0,30.18,East,83,0.0,2.2,62,0.00,,---,0.00,VWS V14.01,2013-01-09 21:29:00,
2013-01-09 16:34:00,71.6,58.3,30.18,NE,46,0.0,0.0,63,0.00,,---,0.00,VWS V14.01,2013-01-09 21:34:00,
2013-01-09 16:39:00,71.2,58.5,30.18,East,79,0.0,0.0,64,0.00,,---,0.00,VWS V14.01,2013-01-09 21:39:00,
2013-01-09 16:44:00,71.1,58.8,30.18,ESE,109,0.0,0.0,65,0.00,,---,0.00,VWS V14.01,2013-01-09 21:44:00,
2013-01-09 16:49:00,70.7,58.9,30.18,East,84,5.4,6.3,66,0.00,,---,0.00,VWS V14.01,2013-01-09 21:49:00,
2013-01-09 16:54:00,70.3,59.4,30.18,ENE,66,3.1,4.9,68,0.00,,---,0.00,VWS V14.01,2013-01-09 21:54:00,
2013-01-09 16:59:00,70.0,59.5,30.18,East,85,5.4,5.8,69,0.00,,---,0.00,VWS V14.01,2013-01-09 21:59:00,
2013-01-09 17:04:00,69.4,59.8,30.18,NE,45,4.9,5.4,71,0.00,,---,0.00,VWS V14.01,2013-01-09 22:04:00,
2013-01-09 17:09:00,69.1,60.3,30.21,ENE,76,5.4,6.3,74,0.00,,---,0.00,VWS V14.01,2013-01-09 22:09:00,
2013-01-09 17:14:00,68.7,60.7,30.21,ENE,73,5.4,5.8,76,0.00,,---,0.00,VWS V14.01,2013-01-09 22:14:00,
2013-01-09 17:19:00,68.4,61.5,30.21,NE,49,3.6,4.0,79,0.00,,---,0.00,VWS V14.01,2013-01-09 22:19:00,
2013-01-09 17:24:00,68.0,61.9,30.21,ENE,72,3.1,7.6,81,0.00,,---,0.00,VWS V14.01,2013-01-09 22:24:00,
2013-01-09 17:29:00,67.6,62.3,30.21,ENE,76,5.8,8.7,83,0.00,,---,0.00,VWS V14.01,2013-01-09 22:29:00,
2013-01-09 17:34:00,67.3,62.3,30.21,ENE,60,4.5,7.2,84,0.00,,---,0.00,VWS V14.01,2013-01-09 22:34:00,
2013-01-09 17:39:00,66.9,61.9,30.21,NNE,24,2.7,7.2,84,0.00,,---,0.00,VWS V14.01,2013-01-09 22:39:00,
2013-01-09 17:44:00,66.7,62.1,30.21,NNE,29,2.2,4.9,85,0.00,,---,0.00,VWS V14.01,2013-01-09 22:44:00,
2013-01-09 17:49:00,66.7,62.1,30.21,ENE,68,2.2,5.8,85,0.00,,---,0.00,VWS V14.01,2013-01-09 22:49:00,
2013-01-09 17:54:00,66.6,61.9,30.21,NE,51,3.6,6.3,85,0.00,,---,0.00,VWS V14.01,2013-01-09 22:54:00,
2013-01-09 17:59:00,66.4,61.8,30.21,NE,45,4.0,5.4,85,0.00,,---,0.00,VWS V14.01,2013-01-09 22:59:00,
2013-01-09 18:04:00,66.2,61.6,30.21,ENE,59,6.3,8.1,85,0.00,,---,0.00,VWS V14.01,2013-01-09 23:04:00,
2013-01-09 18:09:00,66.0,61.8,30.21,North,357,0.0,2.2,86,0.00,,---,0.00,VWS V14.01,2013-01-09 23:09:00,
2013-01-09 18:14:00,66.0,62.1,30.21,ENE,57,0.0,3.1,87,0.00,,---,0.00,VWS V14.01,2013-01-09 23:14:00,
2013-01-09 18:19:00,66.0,62.1,30.21,ENE,59,5.8,5.8,87,0.00,,---,0.00,VWS V14.01,2013-01-09 23:19:00,
2013-01-09 18:24:00,66.0,62.4,30.21,East,91,8.1,8.1,88,0.00,,---,0.00,VWS V14.01,2013-01-09 23:24:00,
2013-01-09 18:29:00,66.0,62.1,30.21,NE,45,2.7,4.0,87,0.00,,---,0.00,VWS V14.01,2013-01-09 23:29:00,
2013-01-09 18:34:00,66.0,62.4,30.21,ENE,75,0.0,0.0,88,0.00,,---,0.00,VWS V14.01,2013-01-09 23:34:00,
2013-01-09 18:39:00,66.0,62.1,30.21,East,82,2.7,3.6,87,0.00,,---,0.00,VWS V14.01,2013-01-09 23:39:00,
2013-01-09 18:44:00,66.0,62.1,30.21,NNE,26,0.0,0.0,87,0.00,,---,0.00,VWS V14.01,2013-01-09 23:44:00,
2013-01-09 18:49:00,66.0,62.4,30.21,NE,44,2.2,3.6,88,0.00,,---,0.00,VWS V14.01,2013-01-09 23:49:00,
2013-01-09 18:54:00,66.0,62.4,30.21,North,0,0.0,0.0,88,0.00,,---,0.00,VWS V14.01,2013-01-09 23:54:00,
2013-01-09 18:59:00,66.0,62.4,30.21,NNW,340,0.0,0.0,88,0.00,,---,0.00,VWS V14.01,2013-01-09 23:59:00,
2013-01-09 19:04:00,66.0,62.4,30.21,NNE,31,2.2,3.1,88,0.00,,---,0.00,VWS V14.01,2013-01-10 00:04:00,
2013-01-09 19:09:00,65.8,62.3,30.21,NW,318,3.1,3.6,88,0.00,,---,0.00,VWS V14.01,2013-01-10 00:09:00,
2013-01-09 19:14:00,65.8,62.6,30.21,NE,45,3.1,5.4,89,0.00,,---,0.00,VWS V14.01,2013-01-10 00:14:00,
2013-01-09 19:19:00,65.8,62.6,30.21,North,0,0.0,2.7,89,0.00,,---,0.00,VWS V14.01,2013-01-10 00:19:00,
2013-01-09 19:24:00,65.8,62.9,30.21,NNE,30,0.0,0.0,90,0.00,,---,0.00,VWS V14.01,2013-01-10 00:24:00,
2013-01-09 19:29:00,65.8,62.9,30.21,NE,36,0.0,3.6,90,0.00,,---,0.00,VWS V14.01,2013-01-10 00:29:00,
2013-01-09 19:34:00,65.8,62.9,30.21,ENE,70,0.0,0.0,90,0.00,,---,0.00,VWS V14.01,2013-01-10 00:34:00,
2013-01-09 19:39:00,65.7,62.8,30.24,ENE,78,0.0,0.0,90,0.00,,---,0.00,VWS V14.01,2013-01-10 00:39:00,
2013-01-09 19:44:00,65.7,63.1,30.24,ENE,68,0.0,0.0,91,0.00,,---,0.00,VWS V14.01,2013-01-10 00:44:00,
2013-01-09 19:49:00,65.7,63.1,30.24,NNE,25,0.0,0.0,91,0.00,,---,0.00,VWS V14.01,2013-01-10 00:49:00,
2013-01-09 19:54:00,65.7,63.1,30.24,ENE,68,0.0,0.0,91,0.00,,---,0.00,VWS V14.01,2013-01-10 00:54:00,
2013-01-09 19:59:00,65.7,63.4,30.24,East,88,0.0,0.0,92,0.00,,---,0.00,VWS V14.01,2013-01-10 00:59:00,
2013-01-09 20:04:00,65.5,63.2,30.24,NNE,30,0.0,0.0,92,0.00,,---,0.00,VWS V14.01,2013-01-10 01:04:00,
2013-01-09 20:09:00,65.5,63.2,30.24,ENE,72,0.0,0.0,92,0.00,,---,0.00,VWS V14.01,2013-01-10 01:09:00,
2013-01-09 20:14:00,65.5,63.2,30.24,NE,41,0.0,0.0,92,0.00,,---,0.00,VWS V14.01,2013-01-10 01:14:00,
2013-01-09 20:19:00,65.5,63.2,30.24,North,0,0.0,0.0,92,0.00,,---,0.00,VWS V14.01,2013-01-10 01:19:00,
2013-01-09 20:24:00,65.5,63.2,30.24,North,357,0.0,0.0,92,0.00,,---,0.00,VWS V14.01,2013-01-10 01:24:00,
2013-01-09 20:29:00,65.5,63.2,30.24,NNE,25,0.0,0.0,92,0.00,,---,0.00,VWS V14.01,2013-01-10 01:29:00,
2013-01-09 20:34:00,65.5,63.2,30.24,NNE,31,0.0,0.0,92,0.00,,---,0.00,VWS V14.01,2013-01-10 01:34:00,
2013-01-09 20:39:00,65.3,63.0,30.24,NE,34,0.0,0.0,92,0.00,,---,0.00,VWS V14.01,2013-01-10 01:39:00,
2013-01-09 20:44:00,65.3,63.4,30.24,NNE,27,0.0,0.0,93,0.00,,---,0.00,VWS V14.01,2013-01-10 01:44:00,
2013-01-09 20:49:00,65.3,63.4,30.24,NNW,348,0.0,0.0,93,0.00,,---,0.00,VWS V14.01,2013-01-10 01:49:00,
2013-01-09 20:54:00,65.1,63.2,30.24,NE,48,0.0,0.0,93,0.00,,---,0.00,VWS V14.01,2013-01-10 01:54:00,
2013-01-09 20:59:00,65.1,63.2,30.24,NE,52,0.0,0.0,93,0.00,,---,0.00,VWS V14.01,2013-01-10 01:59:00,
2013-01-09 21:04:00,65.1,63.2,30.24,NE,43,0.0,0.0,93,0.00,,---,0.00,VWS V14.01,2013-01-10 02:04:00,
2013-01-09 21:09:00,65.3,63.4,30.24,NE,45,0.0,0.0,93,0.00,,---,0.00,VWS V14.01,2013-01-10 02:09:00,
2013-01-09 21:14:00,65.3,63.4,30.24,North,0,0.0,0.0,93,0.00,,---,0.00,VWS V14.01,2013-01-10 02:14:00,
2013-01-09 21:19:00,65.3,63.4,30.24,North,5,0.0,0.0,93,0.00,,---,0.00,VWS V14.01,2013-01-10 02:19:00,
2013-01-09 21:24:00,65.3,63.4,30.24,NNW,344,0.0,0.0,93,0.00,,---,0.00,VWS V14.01,2013-01-10 02:24:00,
2013-01-09 21:29:00,65.3,63.4,30.24,North,11,0.0,0.0,93,0.00,,---,0.00,VWS V14.01,2013-01-10 02:29:00,
2013-01-09 21:34:00,65.1,62.9,30.24,NNE,33,0.0,0.0,92,0.00,,---,0.00,VWS V14.01,2013-01-10 02:34:00,
2013-01-09 21:39:00,65.1,63.2,30.24,North,353,0.0,0.0,93,0.00,,---,0.00,VWS V14.01,2013-01-10 02:39:00,
2013-01-09 21:44:00,65.1,63.2,30.24,NE,55,0.0,0.0,93,0.00,,---,0.00,VWS V14.01,2013-01-10 02:44:00,
2013-01-09 21:49:00,65.1,63.2,30.24,NE,45,0.0,0.0,93,0.00,,---,0.00,VWS V14.01,2013-01-10 02:49:00,
2013-01-09 21:54:00,65.3,63.4,30.24,ENE,62,0.0,0.0,93,0.00,,---,0.00,VWS V14.01,2013-01-10 02:54:00,
2013-01-09 21:59:00,65.5,63.5,30.24,ENE,70,0.0,0.0,93,0.00,,---,0.00,VWS V14.01,2013-01-10 02:59:00,
2013-01-09 22:04:00,65.5,63.5,30.24,ENE,65,0.0,0.0,93,0.00,,---,0.00,VWS V14.01,2013-01-10 03:04:00,
2013-01-09 22:09:00,65.7,63.7,30.24,NE,44,0.0,0.0,93,0.00,,---,0.00,VWS V14.01,2013-01-10 03:09:00,
2013-01-09 22:14:00,65.8,63.9,30.24,East,82,0.0,0.0,93,0.00,,---,0.00,VWS V14.01,2013-01-10 03:14:00,
2013-01-09 22:19:00,65.8,64.2,30.24,NE,49,0.0,0.0,94,0.00,,---,0.00,VWS V14.01,2013-01-10 03:19:00,
2013-01-09 22:24:00,66.0,64.4,30.24,ENE,78,0.0,0.0,94,0.00,,---,0.00,VWS V14.01,2013-01-10 03:24:00,
2013-01-09 22:29:00,66.0,64.4,30.24,ENE,77,0.0,0.0,94,0.00,,---,0.00,VWS V14.01,2013-01-10 03:29:00,
2013-01-09 22:34:00,66.2,64.6,30.24,NE,44,0.0,0.0,94,0.00,,---,0.00,VWS V14.01,2013-01-10 03:34:00,
2013-01-09 22:39:00,66.2,64.6,30.24,ENE,57,0.0,0.0,94,0.00,,---,0.00,VWS V14.01,2013-01-10 03:39:00,
2013-01-09 22:44:00,66.2,64.6,30.24,NE,47,0.0,0.0,94,0.00,,---,0.00,VWS V14.01,2013-01-10 03:44:00,
2013-01-09 22:49:00,66.2,64.9,30.24,ENE,65,0.0,0.0,96,0.00,,---,0.00,VWS V14.01,2013-01-10 03:49:00,
2013-01-09 22:54:00,66.2,64.9,30.24,NNE,27,0.0,0.0,96,0.00,,---,0.00,VWS V14.01,2013-01-10 03:54:00,
2013-01-09 22:59:00,66.2,64.9,30.24,North,357,0.0,0.0,96,0.00,,---,0.00,VWS V14.01,2013-01-10 03:59:00,
2013-01-09 23:04:00,66.0,64.7,30.24,ENE,61,0.0,0.0,96,0.00,,---,0.00,VWS V14.01,2013-01-10 04:04:00,
2013-01-09 23:09:00,66.0,64.7,30.24,East,88,0.0,0.0,96,0.00,,---,0.00,VWS V14.01,2013-01-10 04:09:00,
2013-01-09 23:14:00,65.8,64.5,30.24,ENE,73,0.0,0.0,96,0.00,,---,0.00,VWS V14.01,2013-01-10 04:14:00,
2013-01-09 23:19:00,65.8,64.8,30.24,ENE,73,0.0,0.0,97,0.00,,---,0.00,VWS V14.01,2013-01-10 04:19:00,
2013-01-09 23:24:00,65.8,64.8,30.24,NE,43,0.0,0.0,97,0.00,,---,0.00,VWS V14.01,2013-01-10 04:24:00,
2013-01-09 23:29:00,65.8,64.8,30.24,NE,37,0.0,0.0,97,0.00,,---,0.00,VWS V14.01,2013-01-10 04:29:00,
2013-01-09 23:34:00,65.8,65.2,30.24,NE,37,0.0,0.0,98,0.00,,---,0.00,VWS V14.01,2013-01-10 04:34:00,
2013-01-09 23:39:00,65.8,65.2,30.24,NNE,31,0.0,0.0,98,0.00,,---,0.00,VWS V14.01,2013-01-10 04:39:00,
2013-01-09 23:44:00,65.8,65.2,30.24,NNE,31,0.0,0.0,98,0.00,,---,0.00,VWS V14.01,2013-01-10 04:44:00,
2013-01-09 23:49:00,65.8,65.2,30.24,NNE,31,0.0,0.0,98,0.00,,---,0.00,VWS V14.01,2013-01-10 04:49:00,
2013-01-09 23:54:00,65.7,65.0,30.24,NNE,30,0.0,0.0,98,0.00,,---,0.00,VWS V14.01,2013-01-10 04:54:00,
2013-01-09 23:59:00,65.7,65.0,30.24,NNE,31,0.0,0.0,98,0.00,,---,0.00,VWS V14.01,2013-01-10 04:59:00,